Showing default

MOLNIYA 1-63, 15429

Orbit data source: Space-Track

MOLNIYA 1-63, 15429 is a payload satellite owned by GUKOS (CIS) that was launched on Fri, 14 Dec 1984 UTC via an MOLNIYA 8K78M launch vehicle from the Plesetsk Missile And Space Complex (PKMTR). Payload-class satellites include a variety of spacecraft equipped with specific instruments for various scientific and technological missions. These include communications satellites like Starlink; space stations such as the ISS; scientific satellites like the Hubble; Earth observation satellites from companies like Planet Labs, Umbra, and HawkEye 360; GPS; miniature CubeSats for education and research; and military/defense satellites.

Loading next visibility...
Identifier
15429, 1984-124A
Orbit
Molniya
Country
Flag of CISCIS
Related business
Manufacturer
NPO PM
Mission
Spacecraft
Bus & Motor
MOLNIYA-1, Unknown motor
Mass
1,650 kg wet, 1,620 kg dry
Launch date (UTC)
1984-12-14 (41 years ago)
Launch vehicle
MOLNIYA 8K78M
Launch site
Plesetsk Missile And Space Complex (PKMTR)
Object type
Payload
Rocket body
Debris
Shape & HBR
Unknown
Radar Cross Section
Large (>1 m²)

Expand to show TLE details & history
Last TLE update: 3 days ago

TLE from 3 days ago
0 MOLNIYA 1-63
1 15429U 84124A   26127.62048427 -.00000944  00000-0  00000-0 0  9999
2 15429  63.0472 355.6989 7290117 257.7176  16.1631  2.00367748303249
Epoch: 2026-05-07T14:53Z
TLE epoch observation values (Epoch: 2026-05-07T14:53:29.840Z)
Latitude
-6.73763°
Longitude
-96.5148°
Altitude
6,888.134 km
Speed
6.716 km/s
True Right ascension
23h 29m 17s
True Declination
-6° 42' 58"
Sunlit
Object was in daylight at epoch
Visualization orbit readout
Latitude
Unknown
Longitude
Unknown
Altitude
Unknown
Speed
Unknown
Apparent Right ascension
Unknown
Apparent Declination
Unknown
Sunlit
N/A
Visualization observer readout
Local Sidereal Time
23:10:00
Azimuth
Unknown
Elevation
Unknown
Doppler factor
Unknown
Orbital elements
Apogee altitude
39,573.251 km
Perigee altitude
823.832 km
Semi-major axis
26,576.678 km
Eccentricity
0.72901
Inclination
63.0472°
RAAN
355.6989°
Arg. of periapsis
257.7176°
True anomaly
94.57477°
Mean anomaly
16.1631°
Eccentric anomaly
46.42261°
Mean motion
0.50095 °/min
Orbital period
718.64 mins
BSTAR
0
Loading maneuver chart data...
Computing Atmospheric mass density...
Loading historical data...
Loading historical data...
Loading historical data...
Loading historical data...
Loading historical data...
Loading historical data...
Loading historical data...

Documentation

Showing up to 5 results
|